Погода в Борисове

Беларусь     54°13′26″N   28°30′42″E
темп.,
°C
ветер,
м/с
пор.,
м/с
влажн.,
%
обл.,
%
осадки,
мм/ч
давл.,
гПа
погр.,
м
2 июля, сб
сб200:00+18юв227960 0.0 102011
03:00+17ююз1176100 0.0 102111
06:00+17ююв228342 0.0 102127
09:00+22ю246725 0.0 1022393
12:00+26ю2351100 0.0 10211190
15:00+27ююз234620 0.0 10212090
18:00+27юз125125 0.0 10201647
21:00+22ююв357379 0.0 102087
3 июля, вс
вс300:00+20ю247953 0.0 102066
03:00+19юз238194 0.0 102052
06:00+17ю2280100 0.0 102034
09:00+22ююз2367100 0.0 1019275
12:00+26юз225499 0.0 1019794
15:00+27юз2247100 0.0 10191928
18:00+27зюз225567 0.0 10181368
21:00+22з227064 0.0 101811
4 июля, пн
пн400:00+21сз226797 0.0 101821
03:00+19с117627 0.0 101811
06:00+18с11806 0.0 101811
09:00+23юв116799 0.0 1018350
12:00+25ю226197 1.1 1017816
15:00+28ююз234743 1.4 10162160
18:00+27юз345515 0.0 10151285
21:00+23зюз2268100 0.0 101523
5 июля, вт
вт500:00+20зсз117945 0.0 101511
03:00+20з1274100 0.0 101517
06:00+19зсз2384100 0.0 101571
09:00+22сз347310 0.0 1015447
12:00+25сз335621 0.0 10151262
15:00+27сз234799 0.0 10141936
18:00+19сз61189100 0.8 1016353
21:00+17ссз4893100 0.8 1017325
6 июля, ср
ср600:00+14зсз349292 0.0 101888
03:00+14ссз369498 0.0 1017123
06:00+15сз2489100 0.0 1018151
09:00+15сз2482100 0.0 1017180
12:00+21сз2453100 0.0 10171280
15:00+22з3452100 0.1 10161750
18:00+21зсз24626 1.1 1016839
21:00+17з227530 1.3 101628